When you browse on this site, cookies collect data to enhance your experience and personalize the content and advertising you see.
Visit our Privacy Policy to learn more. By continuing to use the site, you agree to this use of cookies and data.
  • In United Kingdom
  • List of Countries
  • For 7 days
  • Water Temperature
  • Weather Map
  • Weather Widgets
  • user-avatar
    Login

    Hourly Weather Pyla

    Today, 26 February, Wednesday

    Time Temperature Precipitation Wind Pressure Humidity
    00:00 +5°C° 0 mm 4 mps 720 mmHg 81%
    01:00 +5°C° 0 mm 4 mps 720 mmHg 82%
    02:00 +5°C° 0 mm 3 mps 720 mmHg 81%
    03:00 +5°C° 0 mm 3 mps 719 mmHg 83%
    04:00 +5°C° 0 mm 3 mps 719 mmHg 85%
    05:00 +5°C° 0 mm 2 mps 718 mmHg 87%
    06:00 +6°C° 0 mm 2 mps 718 mmHg 87%
    07:00 +6°C° 0 mm 2 mps 718 mmHg 87%
    08:00 +6°C° 0 mm 2 mps 718 mmHg 87%
    09:00 +7°C° 0.1 mm 2 mps 717 mmHg 84%
    10:00 +8°C° 0.1 mm 2 mps 717 mmHg 80%
    11:00 +9°C° 0.1 mm 2 mps 717 mmHg 76%
    12:00 +8°C° 0.8 mm 2 mps 716 mmHg 81%
    13:00 +7°C° 0.8 mm 2 mps 716 mmHg 85%
    14:00 +8°C° 0.8 mm 1 mps 715 mmHg 89%
    15:00 +6°C° 0.6 mm 2 mps 715 mmHg 89%
    16:00 +6°C° 0.6 mm 2 mps 715 mmHg 89%
    17:00 +6°C° 0.6 mm 2 mps 715 mmHg 89%
    18:00 +5°C° 0.5 mm 2 mps 715 mmHg 91%
    19:00 +4°C° 0.5 mm 3 mps 716 mmHg 92%
    20:00 +4°C° 0.5 mm 3 mps 716 mmHg 93%
    21:00 +3°C° 0.3 mm 3 mps 717 mmHg 92%
    22:00 +3°C° 0.3 mm 3 mps 717 mmHg 92%
    23:00 +3°C° 0.3 mm 3 mps 717 mmHg 91%

    Tomorrow, 27 February, Thursday

    Time Temperature Precipitation Wind Pressure Humidity
    00:00 +2°C° 0.2 mm 3 mps 718 mmHg 88%
    01:00 +2°C° 0.2 mm 3 mps 718 mmHg 86%
    02:00 +2°C° 0.2 mm 2 mps 718 mmHg 83%
    03:00 +2°C° 0 mm 2 mps 718 mmHg 83%
    04:00 +2°C° 0 mm 2 mps 718 mmHg 82%
    05:00 +2°C° 0 mm 2 mps 718 mmHg 82%
    06:00 +2°C° 0 mm 2 mps 719 mmHg 82%
    07:00 0°C° 0 mm 3 mps 719 mmHg 82%
    08:00 0°C° 0 mm 3 mps 720 mmHg 83%
    09:00 -1°C° 0 mm 4 mps 720 mmHg 82%
    10:00 0°C° 0 mm 4 mps 721 mmHg 81%
    11:00 0°C° 0 mm 5 mps 721 mmHg 81%
    12:00 0°C° 0.1 mm 5 mps 721 mmHg 79%
    13:00 +1°C° 0.1 mm 4 mps 722 mmHg 78%
    14:00 +1°C° 0.1 mm 4 mps 722 mmHg 76%
    15:00 +1°C° 0.1 mm 4 mps 722 mmHg 74%
    16:00 +2°C° 0.1 mm 3 mps 722 mmHg 73%
    17:00 +2°C° 0.1 mm 3 mps 722 mmHg 71%
    18:00 +1°C° 0 mm 3 mps 722 mmHg 75%
    19:00 0°C° 0 mm 3 mps 722 mmHg 79%
    20:00 -1°C° 0 mm 2 mps 723 mmHg 84%
    21:00 -1°C° 0 mm 2 mps 723 mmHg 83%
    22:00 -1°C° 0 mm 2 mps 723 mmHg 83%
    23:00 -1°C° 0 mm 2 mps 723 mmHg 83%

    Day after tomorrow, 28 February, Friday

    Time Temperature Precipitation Wind Pressure Humidity
    00:00 -1°C° 0 mm 2 mps 722 mmHg 83%
    01:00 -1°C° 0 mm 2 mps 722 mmHg 82%
    02:00 -1°C° 0 mm 2 mps 722 mmHg 82%
    03:00 -1°C° 0 mm 2 mps 722 mmHg 79%
    04:00 -1°C° 0 mm 3 mps 721 mmHg 76%
    05:00 0°C° 0 mm 3 mps 721 mmHg 74%
    06:00 -1°C° 0 mm 4 mps 721 mmHg 74%
    07:00 -1°C° 0 mm 4 mps 720 mmHg 74%
    08:00 -1°C° 0 mm 5 mps 720 mmHg 75%
    09:00 0°C° 0 mm 5 mps 720 mmHg 71%
    10:00 +1°C° 0 mm 5 mps 719 mmHg 66%
    11:00 +2°C° 0 mm 5 mps 719 mmHg 62%
    12:00 +2°C° 0.1 mm 5 mps 720 mmHg 63%
    13:00 +4°C° 0.1 mm 4 mps 720 mmHg 65%
    14:00 +4°C° 0.1 mm 4 mps 720 mmHg 66%
    15:00 +3°C° 0.6 mm 4 mps 721 mmHg 76%
    16:00 0°C° 0.6 mm 5 mps 721 mmHg 86%
    17:00 -1°C° 0.6 mm 5 mps 722 mmHg 95%
    18:00 -2°C° 0.6 mm 6 mps 723 mmHg 95%
    19:00 -2°C° 0.6 mm 7 mps 724 mmHg 94%
    20:00 -4°C° 0.6 mm 8 mps 726 mmHg 94%
    21:00 -3°C° 0.2 mm 7 mps 727 mmHg 93%
    22:00 -3°C° 0.2 mm 6 mps 727 mmHg 92%
    23:00 -2°C° 0.2 mm 5 mps 728 mmHg 91%

    29 February, Saturday

    Time Temperature Precipitation Wind Pressure Humidity
    00:00 -2°C° 0.1 mm 5 mps 729 mmHg 91%
    01:00 -2°C° 0.1 mm 5 mps 729 mmHg 91%
    02:00 -2°C° 0.1 mm 4 mps 730 mmHg 91%
    03:00 -3°C° 0 mm 4 mps 730 mmHg 90%
    04:00 -3°C° 0 mm 4 mps 730 mmHg 89%
    05:00 -2°C° 0 mm 3 mps 730 mmHg 88%
    06:00 -2°C° 0 mm 3 mps 731 mmHg 87%
    07:00 -4°C° 0 mm 3 mps 731 mmHg 86%
    08:00 -4°C° 0 mm 3 mps 731 mmHg 85%
    09:00 -1°C° 0 mm 3 mps 731 mmHg 78%
    10:00 +1°C° 0 mm 3 mps 731 mmHg 70%
    11:00 +2°C° 0 mm 3 mps 731 mmHg 63%
    12:00 +3°C° 0 mm 3 mps 731 mmHg 61%
    13:00 +3°C° 0 mm 4 mps 731 mmHg 59%
    14:00 +4°C° 0 mm 4 mps 730 mmHg 58%
    15:00 +3°C° 0 mm 4 mps 730 mmHg 61%
    16:00 +3°C° 0 mm 3 mps 730 mmHg 65%
    17:00 +2°C° 0 mm 3 mps 729 mmHg 69%
    18:00 +1°C° 0 mm 3 mps 730 mmHg 72%
    19:00 0°C° 0 mm 3 mps 730 mmHg 75%
    20:00 -1°C° 0 mm 2 mps 730 mmHg 78%
    21:00 -1°C° 0 mm 3 mps 729 mmHg 78%
    22:00 -1°C° 0 mm 3 mps 729 mmHg 77%
    23:00 -2°C° 0 mm 4 mps 729 mmHg 76%

    1 March, Sunday

    Time Temperature Precipitation Wind Pressure Humidity
    00:00 -1°C° 0 mm 3 mps 729 mmHg 75%
    01:00 -1°C° 0 mm 3 mps 728 mmHg 74%
    02:00 -1°C° 0 mm 3 mps 728 mmHg 73%
    03:00 -1°C° 0 mm 3 mps 728 mmHg 72%
    04:00 -1°C° 0 mm 4 mps 727 mmHg 71%
    05:00 -1°C° 0 mm 4 mps 727 mmHg 70%
    06:00 -1°C° 0 mm 4 mps 727 mmHg 69%
    07:00 0°C° 0 mm 4 mps 727 mmHg 67%
    08:00 0°C° 0 mm 4 mps 727 mmHg 65%
    09:00 +1°C° 0 mm 4 mps 727 mmHg 64%
    10:00 +4°C° 0 mm 4 mps 727 mmHg 63%
    11:00 +5°C° 0 mm 4 mps 727 mmHg 63%
    12:00 +5°C° 0.1 mm 4 mps 727 mmHg 68%
    13:00 +5°C° 0.1 mm 4 mps 726 mmHg 73%
    14:00 +4°C° 0.1 mm 4 mps 726 mmHg 78%
    15:00 +4°C° 0.1 mm 3 mps 726 mmHg 80%
    16:00 +5°C° 0.1 mm 2 mps 726 mmHg 82%
    17:00 +6°C° 0.1 mm 1 mps 726 mmHg 84%
    18:00 +6°C° 0 mm 1 mps 726 mmHg 85%
    19:00 +5°C° 0 mm 2 mps 726 mmHg 87%
    20:00 +4°C° 0 mm 2 mps 726 mmHg 89%
    21:00 +4°C° 0 mm 2 mps 726 mmHg 89%
    22:00 +4°C° 0 mm 2 mps 726 mmHg 89%
    23:00 +4°C° 0 mm 2 mps 725 mmHg 90%

    2 March, Monday

    Time Temperature Precipitation Wind Pressure Humidity
    00:00 +5°C° 0.1 mm 2 mps 725 mmHg 90%
    01:00 +5°C° 0.1 mm 2 mps 725 mmHg 90%
    02:00 +5°C° 0.1 mm 2 mps 724 mmHg 90%
    03:00 +5°C° 0.6 mm 2 mps 724 mmHg 91%
    04:00 +5°C° 0.6 mm 2 mps 723 mmHg 92%
    05:00 +5°C° 0.6 mm 2 mps 723 mmHg 93%
    06:00 +5°C° 0.6 mm 2 mps 723 mmHg 93%
    07:00 +5°C° 0.6 mm 2 mps 723 mmHg 94%
    08:00 +5°C° 0.6 mm 2 mps 723 mmHg 95%
    09:00 +4°C° 0.4 mm 3 mps 723 mmHg 94%
    10:00 +3°C° 0.4 mm 3 mps 724 mmHg 93%
    11:00 +3°C° 0.4 mm 3 mps 724 mmHg 93%
    12:00 +3°C° 0.3 mm 3 mps 724 mmHg 92%
    13:00 +3°C° 0.3 mm 3 mps 724 mmHg 92%
    14:00 +3°C° 0.3 mm 3 mps 725 mmHg 91%
    15:00 +3°C° 0.1 mm 3 mps 725 mmHg 89%
    16:00 +5°C° 0.1 mm 2 mps 725 mmHg 87%
    17:00 +5°C° 0.1 mm 2 mps 726 mmHg 85%
    18:00 +4°C° 0 mm 2 mps 726 mmHg 87%
    19:00 +3°C° 0 mm 2 mps 726 mmHg 89%
    20:00 +2°C° 0 mm 2 mps 726 mmHg 90%
    21:00 +2°C° 0 mm 2 mps 727 mmHg 89%
    22:00 +1°C° 0 mm 2 mps 727 mmHg 88%
    23:00 +1°C° 0 mm 2 mps 727 mmHg 88%
    Show more